RESURS-DK 1

Last updated on Fri May 09 2025 00:02:13 GMT+0000 (Coordinated Universal Time)

1 29228U 06021A 25128.02687849 .00002844 00000+0 17712-3 0 9992 2 29228 69.9332 306.3703 0007427 242.1702 117.8711 15.10795053 41352
UTC large
Height (km)
Speed (km/s)
/
Latitude / Longitude
Inclination (degrees)
Orbital Period (minutes)
Azimuth
Elevation
Range (km)
Doppler Factor

Next 0 passes for location: London (51.5072 / 0.1276)

Sorry there are no passes over London.